Regional Weather Roundup
Issued by NWS Cleveland, OH

Home | Current Version | Previous Version | Graphics & Text | Print | Product List | Glossary On
Versions: 1 2 3 4 5 6 7 8 9 10 11 12 13 14 15 16 17 18 19 20 21 22 23 24 25 26 27 28 29 30 31 32 33 34 35 36 37 38 39 40 41 42 43 44 45 46 47 48 49 50
000
ASUS41 KCLE 270502
RWRCLE
OHIO REGIONAL WEATHER ROUNDUP
NATIONAL WEATHER SERVICE CLEVELAND, OH
100 AM EDT TUE SEP 27 2016

NOTE: "FAIR" INDICATES FEW OR NO CLOUDS BELOW 12,000 FEET WITH NO
SIGNIFICANT WEATHER AND/OR OBSTRUCTIONS TO VISIBILITY.

OHZ001>008-015>018-024>027-034-035-043-044-270600-
   NORTHWEST OHIO

CITY           SKY/WX    TMP DP  RH WIND       PRES   REMARKS
DEFIANCE       CLEAR     54  39  57 SW7       29.94F
FINDLAY        CLEAR     53  42  66 SW6       29.96S
TOLEDO EXPRESS CLEAR     51  45  79 SW7       29.93F
TOLEDO EXEC    CLEAR     52  45  77 SW8       29.94F
LIMA           CLEAR     55  44  66 SW10      29.98S
$$

OHZ009>014-019>023-028>033-038-089-270600-
   NORTHEAST OHIO

CITY           SKY/WX    TMP DP  RH WIND       PRES   REMARKS
CLE-HOPKINS    CLEAR     57  45  64 S14G20    29.96F
CLE-LAKEFRONT  CLEAR     59  46  62 S13       29.93F
CUY CO. ARPT   NOT AVBL
LORAIN-ELYRIA  CLEAR     50  44  80 SW7       29.95F
ASHTABULA      CLEAR     55  52  89 SW8       29.95F
AKRON-CANTON   CLEAR     53  48  83 SW7       29.98F
WOOSTER        CLEAR     51  47  86 SW5       29.98F
MANSFIELD      CLEAR     55  44  66 SW8       29.98S
YOUNGSTOWN     PTCLDY    53  52  96 S6        29.97F
$$

OHZ042-051>053-060>062-070>072-077>081-270600-
  SOUTHWEST OHIO

CITY           SKY/WX    TMP DP  RH WIND       PRES   REMARKS
CINC-COVINGTON CLEAR     54  51  90 SW6       30.05S
CINC-LUNKEN    CLEAR     53  53 100 CALM      30.06S
HAMILTON       CLEAR     48  45  89 CALM      30.05S FOG
DAYTON         CLEAR     52  46  80 SW9       30.02F
WRIGHT-PAT AFB CLEAR     50  47  90 S7        30.01F
DAYTON GENERAL CLEAR     53  48  83 CALM      30.02F
WILMINGTON     CLEAR     51  49  92 S5        30.03F
$$

OHZ036-037-039>041-045>050-054>059-063>069-073>076-082>088-270600-
  CENTRAL AND SOUTHEAST OHIO

CITY           SKY/WX    TMP DP  RH WIND       PRES   REMARKS
COLUMBUS       CLEAR     54  51  90 S5        30.01S
OSU AIRPORT    CLEAR     53  49  86 S7        30.01S
BOLTON FIELD   CLEAR     50  48  94 SW7       30.02S
RICKENBACK AFB CLEAR     51  49  92 SW5       30.02S
NEWARK         CLEAR     47  45  93 CALM      30.01F
MARION         CLEAR     52  44  74 SW8       29.99S
LANCASTER      CLEAR     54  49  83 SW6       30.03S
ZANESVILLE     CLEAR     54  52  93 SW6       30.02F
NEW PHILLY     FOG       53  53 100 E3        30.01F VSB 1/4
$$



USA.gov is the U.S. government's official web portal to all federal, state and local government web resources and services.